Overview Statistics Trail Chart Weather Telemetry Raw packets
 

This is the latest recevied weather packets stored in our database for station/object WW6Q. If no packets are shown the sender has not sent any weather packets the latest 10 day(s).

<< 71 72 73 74 75 76 77 >>
Time Temp. Humidity Pressure Rain* Wind** Luminosity Snow
1788118487 25.56° C 75% 1016.8 hPa 0 mm - 879 W/m² -
1788118182 25.56° C 74% 1016.6 hPa 0 mm - 862 W/m² -
1788117877 25° C 75% 1016.6 hPa 0 mm - 591 W/m² -
1788117573 24.44° C 76% 1016.6 hPa 0 mm - 523 W/m² -
1788117272 24.44° C 80% 1016.3 hPa 0 mm - 530 W/m² -
1788116969 24.44° C 78% 1016.3 hPa 0 mm - 358 W/m² -
1788116669 24.44° C 80% 1016.5 hPa 0 mm - 398 W/m² -
1788116368 24.44° C 79% 1016.5 hPa 0 mm - 390 W/m² -
1788116063 24.44° C 78% 1016.4 hPa 0 mm - 482 W/m² -
1788115759 23.89° C 82% 1016.7 hPa 0 mm - 576 W/m² -
1788115457 23.33° C 79% 1016.5 hPa 0 mm - 462 W/m² -
1788115158 22.78° C 84% 1016.8 hPa 0 mm - 478 W/m² -
1788114852 22.78° C 86% 1016.7 hPa 0 mm - 403 W/m² -
1788114548 22.78° C 84% 1016.6 hPa 0 mm - 199 W/m² -
1788114243 22.78° C 84% 1016.8 hPa 0 mm - 225 W/m² -
1788113939 22.78° C 84% 1016.7 hPa 0 mm - 464 W/m² -
1788113634 22.22° C 86% 1016.4 hPa 0 mm - 340 W/m² -
1788113329 22.22° C 86% 1016.9 hPa 0 mm - 287 W/m² -
1788113029 21.67° C 89% 1016.9 hPa 0 mm - 343 W/m² -
1788112728 21.67° C 89% 1016.9 hPa 0 mm - 297 W/m² -
1788112423 21.67° C 89% 1017.1 hPa 0 mm - 315 W/m² -
1788112123 21.67° C 90% 1017.1 hPa 0 mm - 353 W/m² -
1788111818 21.11° C 92% 1017.2 hPa 0 mm - 441 W/m² -
1788111513 21.11° C 91% 1017.5 hPa 0 mm - 294 W/m² -
1788111209 21.11° C 92% 1017.5 hPa 0 mm - 148 W/m² -

* Rain latest hour (hover to see other rain measurements)
** Current wind speed in m/s (hover to see current wind gust speed)